Santa Monica, CA

3:01 PM PDT on May 26, 2017 (GMT -0700)
Santa Monica Municipal

Weather History for KSMO - January, 2013

Change the Weather History Date:

Tuesday, January 29, 2013

  Actual Average Record
Temperature  
Mean Temperature 52 °F -  
Max Temperature 57 °F 67 °F 87 °F (1962)
Min Temperature 46 °F 45 °F 32 °F (1947)
Degree Days  
Heating Degree Days 14    
Growing Degree Days 2 (Base 50)    
Moisture  
Dew Point 36 °F    
Average Humidity 54    
Maximum Humidity 74    
Minimum Humidity 37    
Precipitation  
Precipitation 0.00 in - - ()
Sea Level Pressure  
Sea Level Pressure 30.20 in    
Wind  
Wind Speed 4 mph (WSW)    
Max Wind Speed 7 mph    
Max Gust Speed -    
Visibility 10 miles    
Events      
Averages and records for this station are not official NWS values.
T = Trace of Precipitation, MM = Missing Value Source: NWS Daily Summary

Daily Weather History Graph

Daily Weather History Graph

Search for Another Location

Airport or City:

Trip Planner

Search our weather history database for the weather conditions in past years. The results will help you decide how hot, cold, wet, or windy it might be!

Date:

Astronomy

Jan. 29, 2013 Rise Set
Actual Time 6:52 AM PST 5:21 PM PST
Civil Twilight 6:26 AM PST 5:48 PM PST
Nautical Twilight 5:56 AM PST 6:18 PM PST
Astronomical Twilight 5:26 AM PST 6:47 PM PST
Moon 8:11 PM PST (1/29) 8:01 AM PST (1/29)
Length of Visible Light 11h 21m
Length of Day
10h 29m
Waning Gibbous, 93% of the Moon is Illuminated
Jan 29
Waning Gibbous
Feb 3
Last Quarter
Feb 9
New
Feb 17
First Quarter
Feb 25
Full

Hourly Weather History & Observations

Time (PST) Temp. Windchill Dew Point Humidity Pressure Visibility Wind Dir Wind Speed Gust Speed Precip Events Conditions
12:51 AM 51.1 °F - 28.9 °F 43% 30.18 in 10.0 mi NNW 4.6 mph - N/A   Clear
1:51 AM 52.0 °F - 28.9 °F 41% 30.18 in 10.0 mi Variable 4.6 mph - N/A   Clear
2:51 AM 51.1 °F - 28.9 °F 43% 30.19 in 10.0 mi WNW 6.9 mph - N/A   Clear
3:51 AM 51.1 °F - 28.9 °F 43% 30.20 in 10.0 mi WNW 4.6 mph - N/A   Clear
4:51 AM 48.9 °F - 28.9 °F 46% 30.19 in 10.0 mi Calm Calm - N/A   Clear
5:51 AM 46.9 °F - 30.9 °F 54% 30.20 in 10.0 mi Calm Calm - N/A   Clear
6:51 AM 46.0 °F 44.8 °F 32.0 °F 58% 30.22 in 10.0 mi East 3.5 mph - N/A   Clear
7:51 AM 48.0 °F - 33.1 °F 56% 30.22 in 10.0 mi NE 4.6 mph - N/A   Clear
8:51 AM 52.0 °F - 33.1 °F 49% 30.24 in 10.0 mi East 6.9 mph - N/A   Clear
9:51 AM 55.0 °F - 34.0 °F 45% 30.23 in 10.0 mi Variable 3.5 mph - N/A   Clear
10:51 AM 55.9 °F - 32.0 °F 40% 30.22 in 10.0 mi Calm Calm - N/A   Clear
11:51 AM 57.9 °F - 32.0 °F 37% 30.20 in 10.0 mi SSW 5.8 mph - N/A   Clear
12:51 PM 57.9 °F - 35.1 °F 42% 30.18 in 10.0 mi WSW 6.9 mph - N/A   Clear
1:51 PM 57.0 °F - 39.9 °F 53% 30.17 in 10.0 mi SW 5.8 mph - N/A   Clear
2:51 PM 57.0 °F - 42.1 °F 57% 30.17 in 10.0 mi WSW 4.6 mph - N/A   Clear
3:51 PM 57.0 °F - 41.0 °F 55% 30.17 in 10.0 mi SSW 5.8 mph - N/A   Clear
4:51 PM 55.0 °F - 41.0 °F 59% 30.17 in 10.0 mi SSW 3.5 mph - N/A   Clear
5:51 PM 54.0 °F - 43.0 °F 66% 30.19 in 10.0 mi South 3.5 mph - N/A   Clear
6:51 PM 54.0 °F - 44.1 °F 69% 30.20 in 10.0 mi Calm Calm - N/A   Clear
7:51 PM 51.1 °F - 41.0 °F 68% 30.22 in 10.0 mi Calm Calm - N/A   Clear
8:51 PM 50.0 °F - 42.1 °F 74% 30.21 in 10.0 mi Calm Calm - N/A   Clear
9:51 PM 50.0 °F - 39.0 °F 66% 30.22 in 10.0 mi Calm Calm - N/A   Clear
10:51 PM 50.0 °F - 39.0 °F 66% 30.22 in 10.0 mi North 3.5 mph - N/A   Clear
11:51 PM 48.0 °F - 39.9 °F 74% 30.22 in 10.0 mi Calm Calm - N/A   Clear